Flag for Venezuela Weather past 2 weeks in Barquisimeto, Venezuela

Now
72 °F

Overcast.


Feels Like: 71 °F
Forecast: 72 / 88 °F
Wind: 7 mph from East

Location: Barquisimeto Airport


UV Index: 3 (Moderate)

Visibility: N/A


Pressure: 29.98 "Hg

Humidity: 83%

Dew point: 66 °F

Location of BarquisimetoLocation

Historic Weather in Barquisimeto

°F

Barquisimeto temperature yesterday

Maximum temperature yesterday: 91 °F (at 3:30 PM)
Minimum temperature yesterday: 70 °F (at 4:30 AM)
Average temperature yesterday: 79 °F

Past Weeks' High & Low Weather Summary

 TemperatureHumidityPressure
High91 °F (Apr 1, 3:30 PM)100% (Apr 3, 9:30 AM)30.09 "Hg (Apr 3, 9:30 AM)
Low37 °F (Apr 7, 12:30 PM)34% (Apr 9, 3:30 PM)29.86 "Hg (Apr 14, 4:30 PM)
Average79 °F68%30.00 "Hg
* Reported Apr 1 5:30 AM — Apr 16 5:30 AM, Barquisimeto, Weather by CustomWeather, © 2014

Note: Actual official high and low records may vary slightly from our data, if they occured in-between our weather recording intervals... More about our weather records

Advertising

Historic Weather Conditions — Data for Previous 24 hours

 ConditionsComfort  
Time TempWeatherWind HumidityBarometerVisibility
5:30 AM
Apr 16
72 °FOvercast.7 mph83%29.95 "HgN/A
4:30 AM72 °FOvercast.6 mph83%29.95 "HgN/A
1:30 AM72 °FOvercast.7 mph83%29.98 "HgN/A
10:30 PM
Apr 15
73 °FPassing clouds.7 mph83%29.98 "HgN/A
9:30 PM75 °FPassing clouds.9 mph78%29.95 "HgN/A
8:30 PM77 °FPassing clouds.12 mph74%29.92 "HgN/A
6:30 PM82 °FPassing clouds.12 mph58%29.89 "HgN/A
5:30 PM86 °FScattered clouds.12 mph49%29.86 "HgN/A
4:30 PM90 °FScattered clouds.12 mph43%29.86 "HgN/A
3:30 PM91 °FScattered clouds.9 mph41%29.86 "HgN/A
2:30 PM88 °FScattered clouds.15 mph46%29.92 "HgN/A
1:30 PM88 °FScattered clouds.15 mph46%29.95 "HgN/A
12:30 PM86 °FPartly sunny.18 mph49%29.95 "HgN/A
11:30 AM86 °FPartly sunny.14 mph46%29.98 "HgN/A
10:30 AM82 °FPartly sunny.12 mph55%29.98 "HgN/A
9:30 AM77 °FPartly sunny.9 mph65%29.98 "HgN/A
8:30 AM73 °FPartly sunny.7 mph74%29.98 "HgN/A
7:30 AM70 °FScattered clouds.5 mph83%29.98 "HgN/A
6:30 AM70 °FPartly sunny.6 mph83%29.98 "HgN/A
Weather by CustomWeather, © 2014

See weather overview